Location: Kalamazoo
(42.2920°N, 85.5870°W)
Time: 12:39:01
(UTC-04:00)

Daily predictions for brighter satellites

Satellite Brightness Start Highest point End
(mag) Time Altitude Azimuth Time Altitude Azimuth Time Altitude Azimuth
Cosmos 1340 3.0 20:53:32 10° SSE 20:57:09 45° E 21:00:48 10° NNE
In-Cosmos 22 Rocket 4.1 20:51:59 10° N 20:57:30 73° E 21:02:50 10° SSE
FREGAT/IRIS 4.3 21:01:42 10° SSW 21:04:27 36° W 21:07:12 10° NNW
Cosmos 2322 4.2 21:03:38 10° SSW 21:09:15 68° WNW 21:14:56 10° NNE
Cosmos 1825 4.1 21:07:36 10° NE 21:09:39 14° ENE 21:11:37 10° ESE
SL-24 R/B - RUBIN 2 3.5 21:05:59 10° NNW 21:10:22 81° NE 21:14:45 10° SE
Cosmos 2074 Rocket 4.4 21:04:13 10° SSW 21:10:29 73° W 21:16:48 10° N
BREEZE-M DEB (TANK) 3.4 21:08:16 10° W 21:11:46 41° NNW 21:13:55 10° NE
Thor Agena Rocket 3.6 21:08:12 10° NNE 21:13:25 67° ESE 21:18:40 10° S
Cosmos 1666 Rocket 3.6 21:10:05 10° N 21:14:33 63° E 21:18:57 10° SSE
OE (NEXTSAT) 4.4 21:11:25 10° WSW 21:14:59 86° NNW 21:18:34 10° ENE
SJ-6B 3.4 21:12:52 10° S 21:16:53 61° W 21:20:50 10° NNW
Cosmos 1610 Rocket 4.5 21:11:03 10° S 21:17:10 86° E 21:23:22 10° N
Cosmos 1939 Rocket 2.8 21:15:57 10° SSE 21:19:45 63° ENE 21:23:38 10° N
Resurs 1-3 3.7 21:16:09 10° SSE 21:20:27 60° ENE 21:24:48 10° N
USA 186 0.7 21:18:32 10° SSE 21:20:45 79° ENE 21:23:01 10° N
Meteor 2-3 Rocket 3.9 21:15:36 10° N 21:21:04 52° ENE 21:26:33 10° SSE
NOSS 2-1 (C) 3.3 21:18:13 10° SW 21:21:48 80° NW 21:25:49 10° NE
NOSS 2-1 (D) 3.3 21:19:11 10° SW 21:22:48 76° NW 21:26:48 10° NNE
Meteor 2-21 Rocket 4.4 21:19:03 10° S 21:25:06 66° E 21:31:14 10° NNE
Cosmos 220 Rocket 4.4 21:22:19 10° N 21:26:31 46° ENE 21:29:56 14° SE
Sich 1 3.0 21:22:50 10° N 21:27:08 85° W 21:31:24 10° S
ATLAS 2AS CENTAUR R/B 3.1 21:20:57 10° NNW 21:28:53 65° NE 21:35:15 14° SE
ARGOS 4.3 21:25:40 13° ESE 21:29:10 25° ENE 21:33:30 10° N
Cosmos 1151 Rocket 3.7 21:25:26 10° SSE 21:29:13 32° E 21:33:01 10° NNE
Spot 2 Rocket 3.6 21:26:50 10° SSE 21:31:51 60° ENE 21:36:52 10° N
Lacrosse 5 4.3 21:33:03 10° NW 21:35:57 15° N 21:38:52 10° NE
BREEZE-M DEB (TANK) 4.3 21:28:00 10° W 21:37:17 43° NNW 21:40:23 10° NE
Nadezhda 3 Rocket 4.2 21:33:40 10° N 21:39:59 81° W 21:46:20 10° S
Cosmos 2360 Rocket 4.4 21:38:39 10° WSW 21:43:28 29° NW 21:48:19 10° N
Cosmos 1980 3.9 21:38:42 10° S 21:44:09 49° ESE 21:49:37 10° NE
OAO 2 Rocket 4.5 21:42:06 10° WSW 21:46:36 30° SSW 21:49:18 19° SSE
Cosmos 1633 Rocket 3.3 21:43:13 10° NNW 21:47:32 69° W 21:51:51 10° S
Meteor 1-27 4.2 21:45:23 10° S 21:51:07 88° ESE 21:56:50 10° N
Cosmos 2333 Rocket 2.2 21:46:57 10° SSW 21:52:38 89° WNW 21:58:19 10° NNE
Meteor 2-16 Rocket 4.5 21:50:33 10° S 21:56:41 85° W 22:02:50 10° N
COSMOS 2428 3.7 21:52:25 10° SW 21:57:58 50° WNW 22:03:32 10° NNE
Cosmos 1455 2.6 21:54:14 10° SSW 21:58:01 63° W 22:01:52 10° N
Cosmos 2228 Rocket 2.9 21:53:47 10° S 21:58:09 73° E 22:02:32 10° NNE
Cosmos 1515 Rocket 3.5 21:53:55 10° S 21:58:21 73° E 22:02:49 10° NNE
ERS-2 4.4 21:56:59 10° SSW 21:59:59 24° W 22:03:00 10° NW
Cosmos 1408 2.6 21:56:37 10° N 22:00:15 61° E 22:01:42 33° SSE
Cosmos 1844 Rocket 3.8 21:55:11 10° NW 22:00:28 41° WSW 22:05:42 10° S
Cosmos 1844 4.5 21:58:39 10° NW 22:04:09 50° WSW 22:09:34 10° S
Cosmos 1892 4.3 22:00:37 10° NNW 22:04:11 35° W 22:07:42 10° SSW
NOSS 3-3 (A) 4.3 22:00:14 10° SW 22:06:15 70° NW 22:12:55 10° NNE
NOSS 3-3 (C) 4.3 22:00:20 10° SW 22:06:21 71° NW 22:13:01 10° NNE
SL-8 R/B 3.6 22:04:25 10° SW 22:09:08 63° SSE 22:12:50 16° ENE
Cosmos 407 Rocket 4.2 22:04:48 10° N 22:09:31 35° ENE 22:11:08 28° E
H-2A R/B 2.5 22:07:50 30° ESE 22:09:44 42° ENE 22:14:25 10° N
Cosmos 2219 Rocket 3.0 22:05:46 10° SW 22:11:18 55° WNW 22:16:52 10° NNE
Cosmos 2237 Rocket 2.1 22:06:08 10° SSW 22:11:44 77° ESE 22:17:23 10° NNE
ERS-1 Rocket 3.5 22:10:13 30° ESE 22:11:56 40° ENE 22:16:36 10° N
USA 267 3.8 22:07:26 10° ENE 22:13:15 33° SE 22:19:02 10° S
NOSS 3 (A) 4.5 22:11:06 10° SW 22:13:49 79° WNW 22:16:56 10° NNE
MetOp-A 4.2 22:12:26 29° SE 22:15:04 63° ENE 22:20:22 10° N
Cosmos 1371 Rocket 4.0 22:12:18 10° S 22:17:30 60° ESE 22:22:47 10° NNE
Genesis I 3.6 22:15:02 10° NW 22:19:04 59° WSW 22:20:28 36° S
Cosmos 2278 Rocket 2.2 22:14:56 10° NNW 22:20:38 84° WSW 22:23:35 30° SSE
Resurs 01 Rocket 3.3 22:17:07 10° SSW 22:21:04 31° W 22:25:03 10° NNW
SL-08 RB Rocket 3.8 22:24:45 45° ESE 22:25:47 58° ENE 22:30:12 10° N
Cosmos 405 Rocket 4.2 22:28:05 24° NE 22:28:05 24° NE 22:30:12 10° NNE
Cosmos 1727 Rocket 3.9 22:22:44 10° N 22:28:54 67° E 22:31:34 35° SSE
Cosmos 1959 Rocket 4.4 22:23:32 10° S 22:29:43 87° W 22:35:53 10° N
ATLAS CENTAUR R/B 2.7 22:29:56 10° WSW 22:33:22 37° NW 22:36:58 10° NNE
Cosmos 2056 Rocket 3.4 22:35:44 24° S 22:39:06 75° ESE 22:44:31 10° NNE
Cosmos 2098 Rocket 3.2 22:39:29 28° SSW 22:41:55 74° W 22:45:50 10° N
Cosmos 2218 Rocket 4.3 22:38:21 10° SSW 22:44:40 68° W 22:51:04 10° N
Cosmos 1825 3.4 22:41:51 10° NNW 22:45:23 38° W 22:46:31 30° SW
Cosmos 405 3.4 22:45:11 10° N 22:48:07 59° NNW 22:48:07 59° NNW
Cosmos 1624 Rocket 4.1 22:52:46 21° SSW 22:56:19 74° WNW 23:01:32 10° NNE
Cosmos 2366 rocket 4.5 22:51:35 11° SSW 22:57:34 59° W 23:03:47 10° N
Cosmos 1190 Rocket 3.9 22:54:40 10° NNW 22:59:59 81° WSW 23:00:47 64° S
SL-16 R/B 2.0 22:59:33 49° S 23:01:10 79° ESE 23:06:50 10° NNE
Cosmos 2344 3.6 22:58:41 38° SSE 23:01:19 53° ESE 23:09:12 10° NE
Terra 2.7 23:05:06 36° NE 23:05:06 36° NE 23:08:54 10° N
GEOS 3 Rocket 3.6 23:00:05 10° NE 23:05:28 87° NW 23:10:44 10° SW
Cosmos 1140 Rocket 3.6 23:01:41 10° NNW 23:06:45 58° ENE 23:06:45 58° ENE
ARGOS 4.0 23:07:10 31° SSW 23:09:09 44° W 23:14:17 10° NNW
CZ-4C R/B 4.1 23:13:19 16° ENE 23:13:19 16° ENE 23:14:41 10° NE
Cosmos 1943 Rocket 4.0 23:09:00 10° N 23:12:41 18° NE 23:13:21 17° ENE
Cosmos 1707 Rocket 4.0 23:13:35 57° N 23:13:35 57° N 23:17:04 10° N
Cosmos 1954 Rocket 4.0 23:08:10 10° NNW 23:13:15 68° ENE 23:13:15 68° ENE
CZ-2C R/B 4.2 23:14:24 27° NE 23:14:24 27° NE 23:17:38 10° N
SPOT 5 2.9 23:19:19 70° WNW 23:19:19 70° WNW 23:23:28 10° NNW
ATLAS 2AS CENTAUR R/B 4.2 23:12:50 10° NW 23:19:18 30° WSW 23:22:42 21° SSW
Lacrosse 5 3.6 23:16:30 10° NNW 23:20:35 24° NNE 23:21:57 21° NE
Cosmos 1869 Rocket 4.2 23:16:21 10° NNW 23:20:24 50° W 23:20:24 50° W
Helios 1B rocket 3.5 23:17:01 10° NNE 23:19:46 41° N 23:19:46 41° N
DMSP B5D2-2 4.3 23:25:57 10° N 23:31:10 66° WNW 23:31:42 62° WSW
Cosmos 2297 4.0 23:26:16 10° NNW 23:31:50 57° WSW 23:32:07 56° WSW
Cosmos 1733 Rocket 4.3 23:28:42 10° N 23:31:26 36° NNE 23:31:26 36° NNE
Helios 1A 4.4 23:35:50 35° WNW 23:35:50 35° WNW 23:39:07 10° NNW
Cosmos 2369 Rocket 3.1 23:35:21 10° N 23:40:15 37° NE 23:40:15 37° NE
SPOT 1/Viking Rocket 4.0 23:40:49 53° W 23:40:49 53° W 23:45:52 10° NNW
H-2A R/B 3.7 23:48:27 22° WSW 23:49:18 23° W 23:53:15 10° NW
Meteor 1-26 Rocket 4.5 23:51:00 62° N 23:51:00 62° N 23:55:36 10° N
NOSS 3-4 (A) 4.1 23:43:20 10° NW 23:50:13 55° WSW 23:51:01 52° SW
NOSS 3-4 (C) 4.1 23:43:25 10° NW 23:50:20 55° WSW 23:51:06 53° SW
